Time,TemperatureF,DewpointF,PressureIn,WindDirection,WindDirectionDegrees,WindSpeedMPH,WindSpeedGustMPH,Humidity,HourlyPrecipIn,Conditions,Clouds,dailyrainin,SoftwareType,DateUTC
2011-08-02 00:03:00,71.8,55.7,30.11,ESE,112,0.0,0.2,57,0.00,,,0.00,open2300-1.11,2011-08-02 06:03:00,
2011-08-02 00:13:00,71.4,55.3,30.10,East,90,0.0,0.0,57,0.00,,,0.00,open2300-1.11,2011-08-02 06:13:00,
2011-08-02 00:23:00,71.4,55.3,30.10,SSE,157,0.0,0.0,57,0.00,,,0.00,open2300-1.11,2011-08-02 06:23:00,
2011-08-02 00:33:00,71.4,55.3,30.09,ENE,67,3.8,3.8,57,0.00,,,0.00,open2300-1.11,2011-08-02 06:33:00,
2011-08-02 00:43:00,71.4,55.8,30.09,ENE,67,1.1,3.8,58,0.00,,,0.00,open2300-1.11,2011-08-02 06:43:00,
2011-08-02 00:53:00,71.4,56.3,30.09,East,90,1.3,1.3,59,0.00,,,0.00,open2300-1.11,2011-08-02 06:53:00,
2011-08-02 01:13:00,71.1,57.0,30.09,East,90,1.8,1.8,61,0.00,,,0.00,open2300-1.11,2011-08-02 07:13:00,
2011-08-02 01:23:00,70.7,57.1,30.08,East,90,0.0,2.0,62,0.00,,,0.00,open2300-1.11,2011-08-02 07:23:00,
2011-08-02 01:33:00,70.5,56.9,30.09,ENE,67,4.5,4.5,62,0.00,,,0.00,open2300-1.11,2011-08-02 07:33:00,
2011-08-02 01:43:00,70.3,57.1,30.08,East,90,1.1,5.4,63,0.00,,,0.00,open2300-1.11,2011-08-02 07:43:00,
2011-08-02 01:53:00,70.2,57.0,30.07,NE,45,1.3,1.6,63,0.00,,,0.00,open2300-1.11,2011-08-02 07:53:00,
2011-08-02 02:13:00,70.0,57.2,30.08,East,90,0.2,1.3,64,0.00,,,0.00,open2300-1.11,2011-08-02 08:13:00,
2011-08-02 02:23:00,69.4,57.1,30.08,ESE,112,0.0,0.4,65,0.00,,,0.00,open2300-1.11,2011-08-02 08:23:00,
2011-08-02 02:33:00,69.3,56.5,30.08,East,90,0.0,3.4,64,0.00,,,0.00,open2300-1.11,2011-08-02 08:33:00,
2011-08-02 02:43:00,69.1,56.8,30.08,SE,135,0.0,1.1,65,0.00,,,0.00,open2300-1.11,2011-08-02 08:43:00,
2011-08-02 02:53:00,69.1,56.8,30.08,SE,135,1.3,1.3,65,0.00,,,0.00,open2300-1.11,2011-08-02 08:53:00,
2011-08-02 03:03:00,68.9,56.6,30.07,ESE,112,0.0,1.3,65,0.00,,,0.00,open2300-1.11,2011-08-02 09:03:00,
2011-08-02 03:13:00,68.9,56.6,30.07,SE,135,0.0,0.0,65,0.00,,,0.00,open2300-1.11,2011-08-02 09:13:00,
2011-08-02 03:23:00,68.7,56.4,30.08,SSE,157,0.0,0.0,65,0.00,,,0.00,open2300-1.11,2011-08-02 09:23:00,
2011-08-02 03:33:00,68.5,55.8,30.07,SSE,157,0.0,0.0,64,0.00,,,0.00,open2300-1.11,2011-08-02 09:33:00,
2011-08-02 03:43:00,68.5,56.3,30.07,ENE,67,0.0,1.1,65,0.00,,,0.00,open2300-1.11,2011-08-02 09:43:00,
2011-08-02 03:53:00,68.4,56.1,30.07,ENE,67,0.0,0.0,65,0.00,,,0.00,open2300-1.11,2011-08-02 09:53:00,
2011-08-02 04:03:00,68.4,56.1,30.07,ENE,67,0.0,0.0,65,0.00,,,0.00,open2300-1.11,2011-08-02 10:03:00,
2011-08-02 04:13:00,68.2,56.3,30.07,East,90,0.0,4.0,66,0.00,,,0.00,open2300-1.11,2011-08-02 10:13:00,
2011-08-02 04:23:00,68.0,56.2,30.07,ENE,67,0.0,0.0,66,0.00,,,0.00,open2300-1.11,2011-08-02 10:23:00,
2011-08-02 04:33:00,67.8,56.0,30.07,East,90,0.0,1.6,66,0.00,,,0.00,open2300-1.11,2011-08-02 10:33:00,
2011-08-02 04:43:00,67.8,56.4,30.07,ENE,67,0.0,3.8,67,0.00,,,0.00,open2300-1.11,2011-08-02 10:43:00,
2011-08-02 04:53:00,67.8,56.4,30.07,ENE,67,0.0,0.0,67,0.00,,,0.00,open2300-1.11,2011-08-02 10:53:00,
2011-08-02 05:03:00,67.6,56.3,30.07,East,90,0.0,1.6,67,0.00,,,0.00,open2300-1.11,2011-08-02 11:03:00,
2011-08-02 05:13:00,67.6,56.3,30.07,East,90,0.0,1.1,67,0.00,,,0.00,open2300-1.11,2011-08-02 11:13:00,
2011-08-02 05:23:00,67.3,55.9,30.07,East,90,0.0,0.0,67,0.00,,,0.00,open2300-1.11,2011-08-02 11:23:00,
2011-08-02 05:33:00,67.1,55.7,30.08,East,90,0.0,2.0,67,0.00,,,0.00,open2300-1.11,2011-08-02 11:33:00,
2011-08-02 05:43:00,66.9,55.6,30.08,East,90,0.0,0.9,67,0.00,,,0.00,open2300-1.11,2011-08-02 11:43:00,
2011-08-02 05:53:00,66.7,55.4,30.07,East,90,0.0,0.0,67,0.00,,,0.00,open2300-1.11,2011-08-02 11:53:00,
2011-08-02 06:03:00,66.6,55.6,30.08,ENE,67,0.0,0.0,68,0.00,,,0.00,open2300-1.11,2011-08-02 12:03:00,
2011-08-02 06:13:00,66.2,55.3,30.07,ENE,67,0.0,0.0,68,0.00,,,0.00,open2300-1.11,2011-08-02 12:13:00,
2011-08-02 06:23:00,66.0,55.1,30.07,ENE,67,0.0,0.0,68,0.00,,,0.00,open2300-1.11,2011-08-02 12:23:00,
2011-08-02 06:33:00,65.5,54.6,30.08,SSE,157,0.0,0.0,68,0.00,,,0.00,open2300-1.11,2011-08-02 12:33:00,
2011-08-02 06:43:00,65.5,54.6,30.08,ENE,67,0.0,2.0,68,0.00,,,0.00,open2300-1.11,2011-08-02 12:43:00,
2011-08-02 06:53:00,65.5,54.6,30.09,ENE,67,0.0,0.0,68,0.00,,,0.00,open2300-1.11,2011-08-02 12:53:00,
2011-08-02 07:03:00,65.5,55.0,30.09,ENE,67,0.0,0.0,69,0.00,,,0.00,open2300-1.11,2011-08-02 13:03:00,
2011-08-02 07:13:00,65.5,55.0,30.09,SSE,157,0.0,0.0,69,0.00,,,0.00,open2300-1.11,2011-08-02 13:13:00,
2011-08-02 07:23:00,65.3,54.9,30.10,SSE,157,0.0,0.0,69,0.00,,,0.00,open2300-1.11,2011-08-02 13:23:00,
2011-08-02 07:33:00,65.5,55.0,30.10,SSE,157,0.0,0.0,69,0.00,,,0.00,open2300-1.11,2011-08-02 13:33:00,
2011-08-02 07:43:00,66.0,55.5,30.09,SE,135,0.0,0.0,69,0.00,,,0.00,open2300-1.11,2011-08-02 13:43:00,
2011-08-02 07:53:00,66.4,55.9,30.09,SE,135,0.0,0.0,69,0.00,,,0.00,open2300-1.11,2011-08-02 13:53:00,
2011-08-02 08:03:00,67.1,56.2,30.10,ENE,67,3.1,3.1,68,0.00,,,0.00,open2300-1.11,2011-08-02 14:03:00,
2011-08-02 08:13:00,67.8,56.4,30.10,ENE,67,0.0,3.1,67,0.00,,,0.00,open2300-1.11,2011-08-02 14:13:00,
2011-08-02 08:23:00,68.4,56.5,30.10,ESE,112,0.0,0.0,66,0.00,,,0.00,open2300-1.11,2011-08-02 14:23:00,
2011-08-02 08:33:00,68.9,56.6,30.10,ESE,112,0.0,0.0,65,0.00,,,0.00,open2300-1.11,2011-08-02 14:33:00,
2011-08-02 08:43:00,69.6,57.3,30.10,ESE,112,0.0,0.0,65,0.00,,,0.00,open2300-1.11,2011-08-02 14:43:00,
2011-08-02 08:53:00,70.3,57.1,30.10,ESE,112,0.0,0.0,63,0.00,,,0.00,open2300-1.11,2011-08-02 14:53:00,
2011-08-02 09:03:00,70.9,56.8,30.10,ESE,112,0.0,0.0,61,0.00,,,0.00,open2300-1.11,2011-08-02 15:03:00,
2011-08-02 09:13:00,71.4,57.3,30.10,ESE,112,0.0,0.0,61,0.00,,,0.00,open2300-1.11,2011-08-02 15:13:00,
2011-08-02 09:23:00,71.8,57.2,30.09,SE,135,0.0,0.0,60,0.00,,,0.00,open2300-1.11,2011-08-02 15:23:00,
2011-08-02 09:33:00,72.7,57.5,30.09,WSW,247,0.0,0.0,59,0.00,,,0.00,open2300-1.11,2011-08-02 15:33:00,
2011-08-02 09:43:00,73.6,57.8,30.09,WNW,292,0.0,0.0,58,0.00,,,0.00,open2300-1.11,2011-08-02 15:43:00,
2011-08-02 09:53:00,74.3,58.0,30.09,West,270,0.0,0.0,57,0.00,,,0.00,open2300-1.11,2011-08-02 15:53:00,
2011-08-02 10:03:00,75.4,58.1,30.08,WNW,292,0.0,0.0,55,0.00,,,0.00,open2300-1.11,2011-08-02 16:03:00,
2011-08-02 10:13:00,75.9,58.6,30.08,WSW,247,0.0,2.5,55,0.00,,,0.00,open2300-1.11,2011-08-02 16:13:00,
2011-08-02 10:23:00,76.3,58.4,30.08,SW,225,0.0,1.8,54,0.00,,,0.00,open2300-1.11,2011-08-02 16:23:00,
2011-08-02 10:33:00,77.2,58.7,30.08,WNW,292,0.0,0.0,53,0.00,,,0.00,open2300-1.11,2011-08-02 16:33:00,
2011-08-02 10:43:00,77.7,58.7,30.08,WSW,247,0.0,0.0,52,0.00,,,0.00,open2300-1.11,2011-08-02 16:43:00,
2011-08-02 10:53:00,78.6,59.0,30.08,NNW,337,1.3,1.3,51,0.00,,,0.00,open2300-1.11,2011-08-02 16:53:00,
2011-08-02 11:03:00,79.3,59.1,30.08,West,270,0.0,1.3,50,0.00,,,0.00,open2300-1.11,2011-08-02 17:03:00,
2011-08-02 11:13:00,79.9,59.6,30.08,WNW,292,0.0,1.1,50,0.00,,,0.00,open2300-1.11,2011-08-02 17:13:00,
2011-08-02 11:23:00,80.2,59.3,30.08,SW,225,0.0,0.0,49,0.00,,,0.00,open2300-1.11,2011-08-02 17:23:00,
2011-08-02 11:33:00,81.0,59.4,30.08,West,270,0.0,4.9,48,0.00,,,0.00,open2300-1.11,2011-08-02 17:33:00,
2011-08-02 11:43:00,81.7,59.4,30.08,WSW,247,0.0,0.0,47,0.00,,,0.00,open2300-1.11,2011-08-02 17:43:00,
2011-08-02 11:53:00,82.6,59.6,30.07,WSW,247,0.0,1.3,46,0.00,,,0.00,open2300-1.11,2011-08-02 17:53:00,
2011-08-02 12:03:00,82.9,59.3,30.07,WNW,292,0.0,6.9,45,0.00,,,0.00,open2300-1.11,2011-08-02 18:03:00,
2011-08-02 12:13:00,83.5,59.8,30.06,WNW,292,0.0,1.3,45,0.00,,,0.00,open2300-1.11,2011-08-02 18:13:00,
2011-08-02 12:23:00,83.8,59.6,30.06,WNW,292,0.0,0.0,44,0.00,,,0.00,open2300-1.11,2011-08-02 18:23:00,
2011-08-02 12:33:00,84.6,59.6,30.05,WSW,247,0.0,2.9,43,0.00,,,0.00,open2300-1.11,2011-08-02 18:33:00,
2011-08-02 12:43:00,85.3,59.6,30.05,WSW,247,3.6,3.6,42,0.00,,,0.00,open2300-1.11,2011-08-02 18:43:00,
2011-08-02 12:53:00,86.2,58.3,30.04,SW,225,0.0,3.6,39,0.00,,,0.00,open2300-1.11,2011-08-02 18:53:00,
2011-08-02 13:03:00,86.0,58.2,30.04,NNW,337,0.0,0.0,39,0.00,,,0.00,open2300-1.11,2011-08-02 19:03:00,
2011-08-02 13:13:00,86.2,58.3,30.04,West,270,0.0,1.3,39,0.00,,,0.00,open2300-1.11,2011-08-02 19:13:00,
2011-08-02 13:23:00,86.7,58.0,30.03,WSW,247,0.0,0.0,38,0.00,,,0.00,open2300-1.11,2011-08-02 19:23:00,
2011-08-02 13:33:00,87.1,57.6,30.03,West,270,0.0,4.2,37,0.00,,,0.00,open2300-1.11,2011-08-02 19:33:00,
2011-08-02 13:43:00,87.6,58.0,30.02,West,270,0.0,0.0,37,0.00,,,0.00,open2300-1.11,2011-08-02 19:43:00,
2011-08-02 13:53:00,88.3,57.8,30.02,WNW,292,0.0,5.4,36,0.00,,,0.00,open2300-1.11,2011-08-02 19:53:00,
2011-08-02 14:03:00,88.9,58.3,30.02,West,270,0.0,0.0,36,0.00,,,0.00,open2300-1.11,2011-08-02 20:03:00,
2011-08-02 14:13:00,89.2,57.0,30.01,WSW,247,0.4,2.2,34,0.00,,,0.00,open2300-1.11,2011-08-02 20:13:00,
2011-08-02 14:23:00,89.4,57.2,30.01,NW,315,4.2,4.2,34,0.00,,,0.00,open2300-1.11,2011-08-02 20:23:00,
2011-08-02 14:33:00,90.0,56.8,30.00,NW,315,0.0,4.2,33,0.00,,,0.00,open2300-1.11,2011-08-02 20:33:00,
2011-08-02 14:43:00,90.1,57.0,30.00,SW,225,1.1,2.5,33,0.00,,,0.00,open2300-1.11,2011-08-02 20:43:00,
2011-08-02 14:53:00,90.7,57.5,30.00,WSW,247,0.0,1.1,33,0.00,,,0.00,open2300-1.11,2011-08-02 20:53:00,
2011-08-02 15:03:00,91.0,57.0,29.99,SW,225,0.0,3.1,32,0.00,,,0.00,open2300-1.11,2011-08-02 21:03:00,
2011-08-02 15:13:00,91.2,56.4,30.00,WNW,292,0.0,3.1,31,0.00,,,0.00,open2300-1.11,2011-08-02 21:13:00,
2011-08-02 15:23:00,91.8,56.8,29.99,WSW,247,4.0,4.0,31,0.00,,,0.00,open2300-1.11,2011-08-02 21:23:00,
2011-08-02 15:33:00,92.1,57.1,29.98,NW,315,4.9,4.9,31,0.00,,,0.00,open2300-1.11,2011-08-02 21:33:00,
2011-08-02 15:43:00,92.5,56.6,29.98,SSW,202,4.7,6.7,30,0.00,,,0.00,open2300-1.11,2011-08-02 21:43:00,
2011-08-02 15:53:00,92.5,56.6,29.98,WSW,247,6.9,6.9,30,0.00,,,0.00,open2300-1.11,2011-08-02 21:53:00,
2011-08-02 16:03:00,91.6,56.7,29.98,West,270,1.8,6.9,31,0.00,,,0.00,open2300-1.11,2011-08-02 22:03:00,
2011-08-02 16:13:00,91.2,56.4,29.97,NW,315,1.3,11.9,31,0.00,,,0.00,open2300-1.11,2011-08-02 22:13:00,
2011-08-02 16:23:00,91.2,56.4,29.98,SW,225,1.1,4.7,31,0.00,,,0.00,open2300-1.11,2011-08-02 22:23:00,
2011-08-02 16:33:00,90.7,55.9,29.97,NNW,337,3.1,3.1,31,0.00,,,0.00,open2300-1.11,2011-08-02 22:33:00,
2011-08-02 16:43:00,90.0,55.3,29.97,WNW,292,2.0,3.1,31,0.00,,,0.00,open2300-1.11,2011-08-02 22:43:00,
2011-08-02 16:53:00,89.8,54.3,29.97,West,270,2.2,2.2,30,0.00,,,0.00,open2300-1.11,2011-08-02 22:53:00,
2011-08-02 17:03:00,89.4,52.9,29.97,West,270,4.7,4.7,29,0.00,,,0.00,open2300-1.11,2011-08-02 23:03:00,
2011-08-02 17:13:00,89.4,52.9,29.98,West,270,0.0,4.7,29,0.00,,,0.00,open2300-1.11,2011-08-02 23:13:00,
2011-08-02 17:23:00,89.8,53.2,29.98,WSW,247,3.4,5.1,29,0.00,,,0.00,open2300-1.11,2011-08-02 23:23:00,
2011-08-02 17:33:00,90.0,53.4,29.99,South,180,0.0,4.5,29,0.00,,,0.00,open2300-1.11,2011-08-02 23:33:00,
2011-08-02 17:43:00,88.3,54.6,30.00,SSE,157,0.0,6.0,32,0.00,,,0.00,open2300-1.11,2011-08-02 23:43:00,
2011-08-02 17:53:00,87.3,54.5,30.00,SSE,157,0.0,5.6,33,0.00,,,0.00,open2300-1.11,2011-08-02 23:53:00,
2011-08-02 18:03:00,86.2,54.4,29.99,ESE,112,0.0,4.2,34,0.00,,,0.00,open2300-1.11,2011-08-03 00:03:00,
2011-08-02 18:13:00,85.1,54.2,29.99,SSE,157,0.0,0.0,35,0.00,,,0.00,open2300-1.11,2011-08-03 00:13:00,
2011-08-02 18:23:00,84.7,54.7,29.99,East,90,0.0,5.4,36,0.00,,,0.00,open2300-1.11,2011-08-03 00:23:00,
2011-08-02 18:33:00,84.2,55.8,29.99,East,90,6.3,6.3,38,0.00,,,0.00,open2300-1.11,2011-08-03 00:33:00,
2011-08-02 18:43:00,83.8,56.3,29.99,East,90,0.0,6.3,39,0.00,,,0.00,open2300-1.11,2011-08-03 00:43:00,
2011-08-02 18:53:00,83.3,55.8,29.99,SSE,157,0.0,1.6,39,0.00,,,0.00,open2300-1.11,2011-08-03 00:53:00,
2011-08-02 19:03:00,82.8,55.3,29.99,East,90,0.0,2.2,39,0.00,,,0.00,open2300-1.11,2011-08-03 01:03:00,
2011-08-02 19:13:00,82.2,55.6,29.99,SE,135,0.0,0.0,40,0.00,,,0.00,open2300-1.11,2011-08-03 01:13:00,
2011-08-02 19:23:00,82.0,55.4,29.99,SE,135,0.0,0.0,40,0.00,,,0.00,open2300-1.11,2011-08-03 01:23:00,
2011-08-02 19:33:00,81.7,55.7,29.99,SE,135,1.1,1.1,41,0.00,,,0.00,open2300-1.11,2011-08-03 01:33:00,
2011-08-02 19:43:00,81.1,55.2,29.99,SSE,157,0.0,5.4,41,0.00,,,0.00,open2300-1.11,2011-08-03 01:43:00,
2011-08-02 19:53:00,81.0,55.7,29.99,SE,135,0.7,4.7,42,0.00,,,0.00,open2300-1.11,2011-08-03 01:53:00,
2011-08-02 20:03:00,80.4,55.2,29.99,SE,135,0.0,2.9,42,0.00,,,0.00,open2300-1.11,2011-08-03 02:03:00,
2011-08-02 20:13:00,79.7,54.5,29.99,East,90,0.0,1.1,42,0.00,,,0.00,open2300-1.11,2011-08-03 02:13:00,
2011-08-02 20:23:00,79.3,54.2,29.99,East,90,0.0,0.9,42,0.00,,,0.00,open2300-1.11,2011-08-03 02:23:00,
2011-08-02 20:33:00,79.0,53.9,29.99,ESE,112,0.0,0.0,42,0.00,,,0.00,open2300-1.11,2011-08-03 02:33:00,
2011-08-02 20:43:00,78.6,54.2,29.99,East,90,0.0,0.0,43,0.00,,,0.00,open2300-1.11,2011-08-03 02:43:00,
2011-08-02 20:53:00,78.1,53.7,30.00,ESE,112,0.0,0.0,43,0.00,,,0.00,open2300-1.11,2011-08-03 02:53:00,
2011-08-02 21:03:00,77.7,54.0,29.99,ENE,67,1.1,1.6,44,0.00,,,0.00,open2300-1.11,2011-08-03 03:03:00,
2011-08-02 21:13:00,77.4,53.7,30.00,East,90,0.0,2.9,44,0.00,,,0.00,open2300-1.11,2011-08-03 03:13:00,
2011-08-02 21:23:00,77.0,53.3,30.00,ESE,112,0.0,0.0,44,0.00,,,0.00,open2300-1.11,2011-08-03 03:23:00,
2011-08-02 21:33:00,76.8,53.2,30.00,East,90,0.0,2.7,44,0.00,,,0.00,open2300-1.11,2011-08-03 03:33:00,
2011-08-02 21:43:00,76.3,52.7,30.01,ESE,112,0.0,0.0,44,0.00,,,0.00,open2300-1.11,2011-08-03 03:43:00,
2011-08-02 21:53:00,76.1,53.2,30.00,SE,135,0.0,0.0,45,0.00,,,0.00,open2300-1.11,2011-08-03 03:53:00,
2011-08-02 22:03:00,75.9,53.0,30.01,ENE,67,0.0,0.0,45,0.00,,,0.00,open2300-1.11,2011-08-03 04:03:00,
2011-08-02 22:13:00,75.6,53.3,30.01,East,90,5.4,5.4,46,0.00,,,0.00,open2300-1.11,2011-08-03 04:13:00,
2011-08-02 22:23:00,75.2,53.0,30.01,ESE,112,0.0,5.4,46,0.00,,,0.00,open2300-1.11,2011-08-03 04:23:00,
2011-08-02 22:33:00,75.0,52.8,30.01,SSE,157,0.0,0.0,46,0.00,,,0.00,open2300-1.11,2011-08-03 04:33:00,
2011-08-02 22:43:00,74.5,52.9,30.01,ESE,112,0.0,6.3,47,0.00,,,0.00,open2300-1.11,2011-08-03 04:43:00,
2011-08-02 22:53:00,74.1,53.1,30.01,SE,135,2.2,3.1,48,0.00,,,0.00,open2300-1.11,2011-08-03 04:53:00,
2011-08-02 23:03:00,73.8,52.8,30.01,SE,135,0.0,5.4,48,0.00,,,0.00,open2300-1.11,2011-08-03 05:03:00,
2011-08-02 23:13:00,73.4,53.0,30.01,SE,135,1.6,2.5,49,0.00,,,0.00,open2300-1.11,2011-08-03 05:13:00,
2011-08-02 23:23:00,73.2,52.8,30.01,SSE,157,0.0,6.3,49,0.00,,,0.00,open2300-1.11,2011-08-03 05:23:00,
2011-08-02 23:33:00,73.0,53.3,30.01,ESE,112,1.1,5.4,50,0.00,,,0.00,open2300-1.11,2011-08-03 05:33:00,
2011-08-02 23:43:00,72.7,53.0,30.01,East,90,0.0,3.4,50,0.00,,,0.00,open2300-1.11,2011-08-03 05:43:00,
2011-08-02 23:53:00,72.5,52.8,30.01,SSE,157,0.0,1.6,50,0.00,,,0.00,open2300-1.11,2011-08-03 05:53:00,